Time,TemperatureF,DewpointF,PressureIn,WindDirection,WindDirectionDegrees,WindSpeedMPH,WindSpeedGustMPH,Humidity,HourlyPrecipIn,Conditions,Clouds,dailyrainin,SoftwareType,DateUTC
2013-05-03 00:01:00,31.0,21.0,29.82,East,88,0.0,1.0,67,0.00,,,0.00,,2013-05-03 08:01:00,
2013-05-03 00:11:00,31.0,21.0,29.82,East,88,0.0,1.0,67,0.00,,,0.00,,2013-05-03 08:11:00,
2013-05-03 00:21:00,31.0,21.0,29.82,East,88,0.0,2.0,65,0.00,,,0.00,,2013-05-03 08:21:00,
2013-05-03 00:31:00,31.0,20.0,29.83,East,88,0.0,2.0,64,0.00,,,0.00,,2013-05-03 08:31:00,
2013-05-03 00:42:00,31.0,20.0,29.83,East,88,0.0,2.0,64,0.00,,,0.00,,2013-05-03 08:42:00,
2013-05-03 00:52:00,31.0,22.0,29.83,East,88,0.0,1.0,68,0.00,,,0.00,,2013-05-03 08:52:00,
2013-05-03 01:01:00,31.0,21.0,29.83,East,88,0.0,1.0,65,0.00,,,0.00,,2013-05-03 09:01:00,
2013-05-03 01:11:00,31.0,21.0,29.83,East,88,0.0,1.0,65,0.00,,,0.00,,2013-05-03 09:11:00,
2013-05-03 01:21:00,31.0,21.0,29.83,East,87,0.0,2.0,65,0.00,,,0.00,,2013-05-03 09:21:00,
2013-05-03 01:32:00,31.0,21.0,29.83,East,88,0.0,2.0,66,0.00,,,0.00,,2013-05-03 09:32:00,
2013-05-03 01:42:00,31.0,21.0,29.83,East,88,0.0,2.0,66,0.00,,,0.00,,2013-05-03 09:42:00,
2013-05-03 01:52:00,31.0,22.0,29.83,East,88,0.0,1.0,68,0.00,,,0.00,,2013-05-03 09:52:00,
2013-05-03 02:02:00,31.0,22.0,29.83,East,88,0.0,1.0,68,0.00,,,0.00,,2013-05-03 10:02:00,
2013-05-03 02:12:00,31.0,22.0,29.83,East,88,0.0,1.0,68,0.00,,,0.00,,2013-05-03 10:12:00,
2013-05-03 02:22:00,31.0,22.0,29.83,East,87,0.0,1.0,69,0.00,,,0.00,,2013-05-03 10:22:00,
2013-05-03 02:32:00,31.0,23.0,29.83,East,88,0.0,0.0,71,0.00,,,0.00,,2013-05-03 10:32:00,
2013-05-03 02:42:00,31.0,23.0,29.83,East,88,0.0,0.0,71,0.00,,,0.00,,2013-05-03 10:42:00,
2013-05-03 02:52:00,31.0,25.0,29.83,North,355,0.0,4.0,78,0.00,,,0.00,,2013-05-03 10:52:00,
2013-05-03 03:02:00,30.0,23.0,29.83,North,355,0.0,0.0,76,0.00,,,0.00,,2013-05-03 11:02:00,
2013-05-03 03:11:00,30.0,23.0,29.83,North,355,0.0,0.0,76,0.00,,,0.00,,2013-05-03 11:11:00,
2013-05-03 03:21:00,29.0,24.0,29.83,North,355,0.0,1.0,80,0.00,,,0.00,,2013-05-03 11:21:00,
2013-05-03 03:31:00,29.0,25.0,29.83,North,355,0.0,1.0,83,0.00,,,0.00,,2013-05-03 11:31:00,
2013-05-03 03:42:00,29.0,25.0,29.83,North,355,0.0,1.0,83,0.00,,,0.00,,2013-05-03 11:42:00,
2013-05-03 03:51:00,28.0,24.0,29.83,North,355,0.0,1.0,84,0.00,,,0.00,,2013-05-03 11:51:00,
2013-05-03 04:01:00,28.0,24.0,29.83,North,355,0.0,2.0,86,0.00,,,0.00,,2013-05-03 12:01:00,
2013-05-03 04:11:00,28.0,24.0,29.83,North,355,0.0,2.0,86,0.00,,,0.00,,2013-05-03 12:11:00,
2013-05-03 04:21:00,28.0,24.0,29.82,North,355,0.0,2.0,86,0.00,,,0.00,,2013-05-03 12:21:00,
2013-05-03 04:32:00,28.0,24.0,29.81,WNW,303,0.0,2.0,86,0.00,,,0.00,,2013-05-03 12:32:00,
2013-05-03 04:41:00,28.0,24.0,29.81,WNW,303,0.0,2.0,86,0.00,,,0.00,,2013-05-03 12:41:00,
2013-05-03 04:51:00,28.0,24.0,29.81,WNW,302,0.0,6.0,85,0.00,,,0.00,,2013-05-03 12:51:00,
2013-05-03 05:01:00,28.0,24.0,29.81,WNW,294,0.0,3.0,85,0.00,,,0.00,,2013-05-03 13:01:00,
2013-05-03 05:11:00,28.0,24.0,29.81,WNW,294,0.0,3.0,85,0.00,,,0.00,,2013-05-03 13:11:00,
2013-05-03 05:22:00,28.0,24.0,29.81,West,276,1.0,3.0,83,0.00,,,0.00,,2013-05-03 13:22:00,
2013-05-03 05:31:00,28.0,24.0,29.80,WNW,284,0.0,4.0,83,0.00,,,0.00,,2013-05-03 13:31:00,
2013-05-03 05:42:00,28.0,24.0,29.80,WNW,284,0.0,4.0,83,0.00,,,0.00,,2013-05-03 13:42:00,
2013-05-03 05:52:00,28.0,23.0,29.80,WNW,292,0.0,4.0,82,0.00,,,0.00,,2013-05-03 13:52:00,
2013-05-03 06:01:00,28.0,23.0,29.79,WNW,292,0.0,2.0,80,0.00,,,0.00,,2013-05-03 14:01:00,
2013-05-03 06:11:00,28.0,23.0,29.79,WNW,292,0.0,2.0,80,0.00,,,0.00,,2013-05-03 14:11:00,
2013-05-03 06:21:00,29.0,23.0,29.79,WNW,286,4.0,8.0,78,0.00,,,0.00,,2013-05-03 14:21:00,
2013-05-03 06:31:00,28.0,22.0,29.78,West,277,3.0,7.0,79,0.00,,,0.00,,2013-05-03 14:31:00,
2013-05-03 06:42:00,28.0,22.0,29.78,West,277,3.0,7.0,79,0.00,,,0.00,,2013-05-03 14:42:00,
2013-05-03 06:52:00,28.0,23.0,29.78,WNW,284,1.0,6.0,82,0.00,,,0.00,,2013-05-03 14:52:00,
2013-05-03 07:01:00,28.0,24.0,29.79,NW,315,1.0,5.0,84,0.00,,,0.00,,2013-05-03 15:01:00,
2013-05-03 07:11:00,28.0,24.0,29.79,NW,315,1.0,5.0,84,0.00,,,0.00,,2013-05-03 15:11:00,
2013-05-03 07:22:00,28.0,24.0,29.78,WSW,244,2.0,6.0,85,0.00,,,0.00,,2013-05-03 15:22:00,
2013-05-03 07:32:00,28.0,24.0,29.78,WNW,288,1.0,5.0,86,0.00,,,0.00,,2013-05-03 15:32:00,
2013-05-03 07:43:00,28.0,24.0,29.78,WNW,288,1.0,5.0,86,0.00,,,0.00,,2013-05-03 15:43:00,
2013-05-03 07:53:00,28.0,25.0,29.78,NW,306,1.0,5.0,87,0.00,,,0.00,,2013-05-03 15:53:00,
2013-05-03 08:03:00,28.0,25.0,29.78,West,275,1.0,5.0,87,0.00,,,0.00,,2013-05-03 16:03:00,
2013-05-03 08:12:00,28.0,25.0,29.78,West,275,1.0,5.0,87,0.00,,,0.00,,2013-05-03 16:12:00,
2013-05-03 08:22:00,29.0,26.0,29.78,NW,306,1.0,5.0,87,0.00,,,0.00,,2013-05-03 16:22:00,
2013-05-03 08:32:00,29.0,26.0,29.77,WNW,284,1.0,8.0,87,0.00,,,0.00,,2013-05-03 16:32:00,
2013-05-03 08:42:00,29.0,26.0,29.77,WNW,284,1.0,8.0,87,0.00,,,0.00,,2013-05-03 16:42:00,
2013-05-03 08:52:00,30.0,26.0,29.77,WNW,282,1.0,6.0,86,0.00,,,0.00,,2013-05-03 16:52:00,
2013-05-03 09:02:00,30.0,26.0,29.77,WNW,283,2.0,7.0,85,0.00,,,0.00,,2013-05-03 17:02:00,
2013-05-03 09:11:00,30.0,26.0,29.77,WNW,283,2.0,7.0,85,0.00,,,0.00,,2013-05-03 17:11:00,
2013-05-03 09:22:00,31.0,27.0,29.76,West,264,1.0,6.0,85,0.01,,,0.01,,2013-05-03 17:22:00,
2013-05-03 09:32:00,31.0,27.0,29.76,WNW,303,1.0,6.0,84,0.01,,,0.01,,2013-05-03 17:32:00,
2013-05-03 09:42:00,31.0,27.0,29.76,WNW,303,1.0,6.0,84,0.01,,,0.01,,2013-05-03 17:42:00,
2013-05-03 09:51:00,31.0,26.0,29.76,WNW,284,1.0,5.0,83,0.01,,,0.01,,2013-05-03 17:51:00,
2013-05-03 10:01:00,32.0,27.0,29.75,West,279,2.0,6.0,82,0.01,,,0.01,,2013-05-03 18:01:00,
2013-05-03 10:11:00,32.0,27.0,29.75,West,279,2.0,6.0,82,0.01,,,0.01,,2013-05-03 18:11:00,
2013-05-03 10:21:00,32.0,27.0,29.75,WNW,303,2.0,7.0,83,0.00,,,0.01,,2013-05-03 18:21:00,
2013-05-03 10:31:00,32.0,28.0,29.75,WNW,284,1.0,5.0,85,0.00,,,0.01,,2013-05-03 18:31:00,
2013-05-03 10:42:00,32.0,28.0,29.75,WNW,284,1.0,5.0,85,0.00,,,0.01,,2013-05-03 18:42:00,
2013-05-03 10:51:00,32.0,28.0,29.75,WNW,284,2.0,6.0,85,0.00,,,0.01,,2013-05-03 18:51:00,
2013-05-03 11:01:00,32.0,29.0,29.75,WNW,284,1.0,6.0,87,0.00,,,0.01,,2013-05-03 19:01:00,
2013-05-03 11:11:00,32.0,29.0,29.75,WNW,284,1.0,6.0,87,0.00,,,0.01,,2013-05-03 19:11:00,
2013-05-03 11:21:00,32.0,28.0,29.75,WNW,290,2.0,6.0,85,0.00,,,0.01,,2013-05-03 19:21:00,
2013-05-03 11:32:00,33.0,29.0,29.75,WNW,283,1.0,6.0,84,0.00,,,0.01,,2013-05-03 19:32:00,
2013-05-03 11:41:00,33.0,29.0,29.75,WNW,283,1.0,6.0,84,0.00,,,0.01,,2013-05-03 19:41:00,
2013-05-03 11:52:00,34.0,30.0,29.75,WNW,283,2.0,6.0,84,0.00,,,0.01,,2013-05-03 19:52:00,
2013-05-03 12:02:00,34.0,29.0,29.75,WNW,298,2.0,7.0,83,0.00,,,0.01,,2013-05-03 20:02:00,
2013-05-03 12:11:00,34.0,29.0,29.75,WNW,298,2.0,7.0,83,0.00,,,0.01,,2013-05-03 20:11:00,
2013-05-03 12:21:00,35.0,30.0,29.74,WNW,300,2.0,5.0,81,0.00,,,0.01,,2013-05-03 20:21:00,
2013-05-03 12:31:00,35.0,29.0,29.74,WNW,284,2.0,6.0,79,0.00,,,0.01,,2013-05-03 20:31:00,
2013-05-03 12:41:00,35.0,29.0,29.74,WNW,284,2.0,6.0,79,0.00,,,0.01,,2013-05-03 20:41:00,
2013-05-03 12:52:00,36.0,29.0,29.75,NNW,337,2.0,7.0,77,0.00,,,0.01,,2013-05-03 20:52:00,
2013-05-03 13:01:00,36.0,29.0,29.75,WNW,282,2.0,7.0,76,0.00,,,0.01,,2013-05-03 21:01:00,
2013-05-03 13:11:00,36.0,29.0,29.75,WNW,282,2.0,7.0,76,0.00,,,0.01,,2013-05-03 21:11:00,
2013-05-03 13:21:00,37.0,30.0,29.74,West,267,1.0,4.0,76,0.00,,,0.01,,2013-05-03 21:21:00,
2013-05-03 13:33:00,37.0,30.0,29.74,WNW,290,2.0,7.0,75,0.00,,,0.01,,2013-05-03 21:33:00,
2013-05-03 13:42:00,37.0,30.0,29.74,WNW,290,2.0,7.0,75,0.00,,,0.01,,2013-05-03 21:42:00,
2013-05-03 13:52:00,37.0,29.0,29.74,WNW,294,1.0,6.0,74,0.00,,,0.01,,2013-05-03 21:52:00,
2013-05-03 14:02:00,38.0,30.0,29.74,West,260,1.0,3.0,73,0.00,,,0.01,,2013-05-03 22:02:00,
2013-05-03 14:12:00,38.0,30.0,29.74,West,260,1.0,3.0,73,0.00,,,0.01,,2013-05-03 22:12:00,
2013-05-03 14:22:00,38.0,31.0,29.74,WSW,258,0.0,3.0,75,0.00,,,0.01,,2013-05-03 22:22:00,
2013-05-03 14:32:00,37.0,30.0,29.74,WNW,287,2.0,4.0,75,0.00,,,0.01,,2013-05-03 22:32:00,
2013-05-03 14:42:00,37.0,30.0,29.74,WNW,287,2.0,4.0,75,0.00,,,0.01,,2013-05-03 22:42:00,
2013-05-03 14:52:00,37.0,30.0,29.75,West,275,2.0,8.0,76,0.00,,,0.01,,2013-05-03 22:52:00,
2013-05-03 15:01:00,36.0,29.0,29.75,West,281,1.0,4.0,77,0.00,,,0.01,,2013-05-03 23:01:00,
2013-05-03 15:11:00,36.0,29.0,29.75,West,281,1.0,4.0,77,0.00,,,0.01,,2013-05-03 23:11:00,
2013-05-03 15:21:00,36.0,30.0,29.75,WNW,283,0.0,3.0,78,0.00,,,0.01,,2013-05-03 23:21:00,
2013-05-03 15:31:00,36.0,30.0,29.75,West,276,1.0,5.0,80,0.00,,,0.01,,2013-05-03 23:31:00,
2013-05-03 15:41:00,36.0,30.0,29.75,West,276,1.0,5.0,80,0.00,,,0.01,,2013-05-03 23:41:00,
2013-05-03 15:51:00,35.0,29.0,29.75,SSW,212,0.0,3.0,79,0.00,,,0.01,,2013-05-03 23:51:00,
2013-05-03 16:01:00,35.0,29.0,29.75,WSW,246,1.0,5.0,80,0.00,,,0.01,,2013-05-04 00:01:00,
2013-05-03 16:11:00,35.0,29.0,29.75,WSW,246,1.0,5.0,80,0.00,,,0.01,,2013-05-04 00:11:00,
2013-05-03 16:22:00,35.0,29.0,29.75,West,269,1.0,4.0,80,0.00,,,0.01,,2013-05-04 00:22:00,
2013-05-03 16:31:00,35.0,29.0,29.75,WNW,290,1.0,5.0,80,0.00,,,0.01,,2013-05-04 00:31:00,
2013-05-03 16:41:00,35.0,29.0,29.75,WNW,290,1.0,5.0,80,0.00,,,0.01,,2013-05-04 00:41:00,
2013-05-03 16:52:00,35.0,29.0,29.75,West,261,1.0,6.0,80,0.00,,,0.01,,2013-05-04 00:52:00,
2013-05-03 17:01:00,35.0,29.0,29.76,West,279,1.0,5.0,80,0.00,,,0.01,,2013-05-04 01:01:00,
2013-05-03 17:11:00,35.0,29.0,29.76,West,279,1.0,5.0,80,0.00,,,0.01,,2013-05-04 01:11:00,
2013-05-03 17:21:00,34.0,28.0,29.75,WSW,249,1.0,6.0,80,0.00,,,0.01,,2013-05-04 01:21:00,
2013-05-03 17:31:00,34.0,29.0,29.76,WSW,253,1.0,5.0,82,0.00,,,0.01,,2013-05-04 01:31:00,
2013-05-03 17:41:00,34.0,29.0,29.76,WSW,253,1.0,5.0,82,0.00,,,0.01,,2013-05-04 01:41:00,
2013-05-03 17:52:00,34.0,29.0,29.76,West,267,1.0,4.0,81,0.00,,,0.01,,2013-05-04 01:52:00,
2013-05-03 18:02:00,34.0,29.0,29.76,WNW,294,1.0,6.0,82,0.00,,,0.01,,2013-05-04 02:02:00,
2013-05-03 18:11:00,34.0,29.0,29.76,WNW,294,1.0,6.0,82,0.00,,,0.01,,2013-05-04 02:11:00,
2013-05-03 18:21:00,34.0,29.0,29.76,WSW,243,1.0,4.0,82,0.00,,,0.01,,2013-05-04 02:21:00,
2013-05-03 18:32:00,33.0,28.0,29.76,NE,39,0.0,3.0,82,0.00,,,0.01,,2013-05-04 02:32:00,
2013-05-03 18:41:00,33.0,28.0,29.76,NE,39,0.0,3.0,82,0.00,,,0.01,,2013-05-04 02:41:00,
2013-05-03 18:52:00,33.0,28.0,29.77,WSW,257,0.0,4.0,82,0.00,,,0.01,,2013-05-04 02:52:00,
2013-05-03 19:02:00,33.0,28.0,29.77,WSW,254,0.0,3.0,82,0.00,,,0.01,,2013-05-04 03:02:00,
2013-05-03 19:11:00,33.0,28.0,29.77,WSW,254,0.0,3.0,82,0.00,,,0.01,,2013-05-04 03:11:00,
2013-05-03 19:21:00,33.0,28.0,29.77,West,259,1.0,6.0,82,0.00,,,0.01,,2013-05-04 03:21:00,
2013-05-03 19:32:00,32.0,27.0,29.77,WSW,253,1.0,5.0,83,0.00,,,0.01,,2013-05-04 03:32:00,
2013-05-03 19:43:00,32.0,27.0,29.77,WSW,253,1.0,5.0,83,0.00,,,0.01,,2013-05-04 03:43:00,
2013-05-03 19:52:00,32.0,28.0,29.78,West,263,1.0,6.0,84,0.00,,,0.01,,2013-05-04 03:52:00,
2013-05-03 20:02:00,31.0,27.0,29.78,West,280,0.0,6.0,86,0.00,,,0.01,,2013-05-04 04:02:00,
2013-05-03 20:12:00,31.0,27.0,29.78,West,280,0.0,6.0,86,0.00,,,0.01,,2013-05-04 04:12:00,
2013-05-03 20:22:00,31.0,28.0,29.79,WNW,284,0.0,4.0,88,0.00,,,0.01,,2013-05-04 04:22:00,
2013-05-03 20:32:00,30.0,27.0,29.80,WNW,294,0.0,3.0,90,0.00,,,0.01,,2013-05-04 04:32:00,
2013-05-03 20:42:00,30.0,27.0,29.80,WNW,294,0.0,3.0,90,0.00,,,0.01,,2013-05-04 04:42:00,
2013-05-03 20:52:00,30.0,28.0,29.80,WSW,253,0.0,3.0,92,0.00,,,0.01,,2013-05-04 04:52:00,
2013-05-03 21:02:00,30.0,28.0,29.80,West,280,0.0,2.0,92,0.00,,,0.01,,2013-05-04 05:02:00,
2013-05-03 21:11:00,30.0,28.0,29.80,West,280,0.0,2.0,92,0.00,,,0.01,,2013-05-04 05:11:00,
2013-05-03 21:21:00,29.0,27.0,29.80,West,262,0.0,1.0,93,0.00,,,0.01,,2013-05-04 05:21:00,
2013-05-03 21:32:00,29.0,27.0,29.81,West,263,0.0,2.0,93,0.00,,,0.01,,2013-05-04 05:32:00,
2013-05-03 21:42:00,29.0,27.0,29.81,West,263,0.0,2.0,93,0.00,,,0.01,,2013-05-04 05:42:00,
2013-05-03 21:51:00,29.0,27.0,29.82,West,265,0.0,1.0,93,0.00,,,0.01,,2013-05-04 05:51:00,
2013-05-03 22:01:00,29.0,27.0,29.82,West,265,0.0,0.0,93,0.00,,,0.01,,2013-05-04 06:01:00,
2013-05-03 22:11:00,29.0,27.0,29.82,West,265,0.0,0.0,93,0.00,,,0.01,,2013-05-04 06:11:00,
2013-05-03 22:21:00,28.0,26.0,29.82,West,265,0.0,1.0,93,0.00,,,0.01,,2013-05-04 06:21:00,
2013-05-03 22:32:00,28.0,26.0,29.83,WNW,300,0.0,2.0,93,0.00,,,0.01,,2013-05-04 06:32:00,
2013-05-03 22:41:00,28.0,26.0,29.83,WNW,300,0.0,2.0,93,0.00,,,0.01,,2013-05-04 06:41:00,
2013-05-03 22:52:00,28.0,26.0,29.83,WNW,291,0.0,1.0,93,0.00,,,0.01,,2013-05-04 06:52:00,
2013-05-03 23:01:00,27.0,25.0,29.83,West,268,0.0,3.0,92,0.00,,,0.01,,2013-05-04 07:01:00,
2013-05-03 23:11:00,27.0,25.0,29.83,West,268,0.0,3.0,92,0.00,,,0.01,,2013-05-04 07:11:00,
2013-05-03 23:21:00,27.0,25.0,29.83,NW,306,0.0,2.0,92,0.00,,,0.01,,2013-05-04 07:21:00,
2013-05-03 23:31:00,27.0,25.0,29.84,NW,309,0.0,4.0,91,0.00,,,0.01,,2013-05-04 07:31:00,
2013-05-03 23:41:00,27.0,25.0,29.84,NW,309,0.0,4.0,91,0.00,,,0.01,,2013-05-04 07:41:00,
2013-05-03 23:52:00,26.0,24.0,29.85,WNW,288,0.0,3.0,91,0.00,,,0.01,,2013-05-04 07:52:00,